Regional Weather Roundup
Issued by NWS

Home | Current Version | Previous Version | Text Only | Print | Product List | Glossary Off
Versions: 1 2 3 4 5 6 7 8 9 10 11 12 13 14 15 16 17 18 19 20 21 22 23 24 25 26 27 28 29 30 31 32 33 34 35 36 37 38 39 40 41 42 43 44 45 46 47 48 49 50

000
ASUS45 KBOU 120410
RWRCO

WEATHER ROUNDUP FOR COLORADO
NATIONAL WEATHER SERVICE DENVER/BOULDER CO
1000 PM MDT FRI JUL 11 2014

NOTE: "FAIR" INDICATES FEW OR NO CLOUDS BELOW 12000 FEET WITH NO
SIGNIFICANT WEATHER AND/OR OBSTRUCTIONS TO VISIBILITY.

COZ001>005-013-030-031-120500-
...NORTHWEST COLORADO...

CITY           SKY/WX    TMP DP  RH WIND       PRES   REMARKS
CRAIG          TSTM      59  59 100 NW12      30.23R
HAYDEN         MOCLDY    68  50  52 E16       30.22R
MEEKER         MOCLDY    74  51  44 N16       30.22R
MOUNT WERNER   NOT AVBL
STEAMBOAT SPGS MOCLDY    66  50  54 NE9       30.26S
WALDEN         MOCLDY    55  52  88 NE10      30.38F
$$

COZ006>008-011-120500-
...WEST CENTRAL VALLEYS...

CITY           SKY/WX    TMP DP  RH WIND       PRES   REMARKS
GRAND JUNCTION MOCLDY    79  50  36 SE16      30.08R
MONTROSE       MOCLDY    77  51  40 NW5       30.19R
EAGLE          CLOUDY    66  57  72 N5        30.28R
RIFLE          TSTM      66  60  81 E14       30.18R
DELTA          MOCLDY    84  48  28 SW6       30.14R
NUCLA          MOCLDY    75  46  35 N7        30.20R
$$

COZ017>023-064>068-120500-
...SOUTHWEST COLORADO...

CITY           SKY/WX    TMP DP  RH WIND       PRES   REMARKS
DURANGO        TSTM      63  55  75 E12       30.36R
CORTEZ         PTCLDY    76  46  34 CALM      30.16R
PAGOSA SPRINGS RAIN      60  57  91 CALM      30.42R
TELLURIDE      MOCLDY    64  48  55 CALM      30.43R
WOLF CREEK PAS NOT AVBL
$$

COZ009-010-012-014-032>034-037-058>063-120500-
...CENTRAL COLORADO...

CITY           SKY/WX    TMP DP  RH WIND       PRES   REMARKS
ASPEN          PTCLDY    59  51  75 SW8       30.34R
BUENA VISTA    PTCLDY    60  51  69 NW9       30.38S
COPPER MTN     CLOUDY    54  43  66 W18       30.68S
BERTHOUD PASS  HAZE      43  30  61 N8        30.72R VSB<1/4
COTTONWOOD PAS PTCLDY    61  43  51 W8        30.53R
GUNNISON       MOCLDY    57  50  77 NW6       30.40S
KREMMLING      DRIZZLE   55  52  88 SW5       30.39R
LEADVILLE      PTCLDY    47  46  97 E5        30.52R
MONARCH PASS   MOCLDY    50  43  76 E7        30.78R
SALIDA         PTCLDY   N/A N/A N/A SW6       30.42R
SUNLIGHT       LGT RAIN  54  48  82 CALM      30.60R
WILKERSON PASS MOCLDY    52  41  66 S7        30.65S
$$

COZ069>075-120500-
...SAN LUIS VALLEY/SANGRE DE CRISTO MOUNTAINS...

CITY           SKY/WX    TMP DP  RH WIND       PRES   REMARKS
ALAMOSA        CLOUDY    63  50  62 S6        30.34S
LA VETA PASS   CLOUDY    52  45  76 SW7       30.55R
SAGUACHE       MOCLDY    64  48  55 NW6       30.38R
$$

COZ035-036-038>040-120500-
...NORTHERN COLORADO FRONT RANGE...

CITY           SKY/WX    TMP DP  RH WIND       PRES   REMARKS
DENVER INTL AP MOCLDY    68  60  75 NE5       30.20R
DMNS CITY PARK   N/A     67  62  85 NE3       30.19R
AURORA         MOCLDY    65  63  93 CALM      30.22R
FRONT RANGE AP NOT AVBL
ERIE MUNI ARPT MOCLDY    67  61  80 CALM      30.18R
BOULDER MUN AP MOCLDY    66  61  82 NW6       30.18S
CENTENNIAL     MOCLDY    67  59  75 NE3       30.22R
BROOMFIELD     MOCLDY    68  61  77 N7        30.21R
FORT COLLINS   PTCLDY    64  61  88 N9        30.20R
LONGMONT       PTCLDY    69  62  77 N6        30.20R
$$

COZ041-046-047-076>085-087-088-120500-
...PIKES PEAK/PALMER DIVIDE AND SOUTHERN FOOTHILLS...

CITY           SKY/WX    TMP DP  RH WIND       PRES   REMARKS
COLO. SPRINGS  MOCLDY    71  52  50 N7        30.23R
A. F. ACADEMY  MOCLDY    65  52  62 N8        30.24F
ELLICOTT       MOCLDY    65  57  75 N10       30.21
FALCON         MOCLDY    65  52  62 NW7       30.28R
FORT CARSON    MOCLDY    71  54  54 N8        30.19S
LIMON          CLOUDY    68  60  75 N21       30.21R THUNDER
MONUMENT HILL  MOCLDY    61  46  59 W8        30.29R
TRINIDAD       MOCLDY    73  54  51 SW7       30.22R
$$

COZ042>045-048>051-090-091-120500-
...NORTHEAST COLORADO...

CITY           SKY/WX    TMP DP  RH WIND       PRES   REMARKS
GREELEY ARPT   NOT AVBL
AKRON          LGT RAIN  64  62  93 SE21G30   30.17R
BURLINGTON     CLOUDY    69  62  78 N12G30    30.14R
WRAY           CLOUDY    66  64  91 NW22      30.14F THUNDER
STERLING       CLOUDY    72  68  88 N9        30.10R
HOLYOKE        TSTM      72  64  78 S15G28    30.13R
FORT MORGAN    CLOUDY    66  62  87 CALM      30.15R
$$

COZ086-089-092>099-120500-
...SOUTHEAST COLORADO...

CITY           SKY/WX    TMP DP  RH WIND       PRES   REMARKS
PUEBLO         CLOUDY    77  56  48 CALM      30.11R
LA JUNTA       MOCLDY    80  59  48 W10       30.10R
LAMAR          MOCLDY    86  47  25 S15       30.03R
SPRINGFIELD      N/A     77  51  40 S15       30.13R
$$


USA.gov is the U.S. government's official web portal to all federal, state and local government web resources and services.